DLH05E LPPR-EDDF

Flight info

Callsign DLH05E
Flight time 2h 37m
Altitude 36000
Route TURON P600 ASDEB DCT LOTEE DCT AZFIC UN741 MOKOR UN873 OBATO UM163 TSU UN858 OQQAL DCT RANUX DCT VALEK DCT LIPNI DCT LIMGO Z111 RAMOB RASVO1D
Aircraft A321/M-SDE2E3FGIJ1LORWXYZ/HB1

Departure

Time 2026-04-14 13:09
Airport Francisco de Sá Carneiro Airport (LPPR)

Arrival

Time 2026-04-14 15:46
Airport Frankfurt Main Airport (EDDF)
Time Latitude Longitude Altitude Speed Heading
2026-04-14 12:36 41.23686 -8.67255 245 ft 0 kts 79°
2026-04-14 12:56 41.23686 -8.67256 245 ft 1 kts 79°
2026-04-14 12:56 41.23682 -8.67286 245 ft 4 kts 79°
2026-04-14 12:56 41.23674 -8.67317 243 ft 4 kts 44°
2026-04-14 12:57 41.23652 -8.67331 242 ft 4 kts
2026-04-14 12:57 41.23626 -8.67330 242 ft 3 kts 349°
2026-04-14 12:57 41.23622 -8.67329 242 ft 0 kts 349°
2026-04-14 13:00 41.23623 -8.67329 242 ft 1 kts 349°
2026-04-14 13:00 41.23639 -8.67333 242 ft 4 kts 348°
2026-04-14 13:00 41.23675 -8.67344 242 ft 6 kts 344°
2026-04-14 13:00 41.23713 -8.67384 241 ft 9 kts 307°
2026-04-14 13:01 41.23765 -8.67455 239 ft 12 kts 333°
2026-04-14 13:01 41.23851 -8.67483 239 ft 13 kts 348°
2026-04-14 13:01 41.23949 -8.67509 238 ft 15 kts 349°
2026-04-14 13:01 41.24057 -8.67537 238 ft 16 kts 348°
2026-04-14 13:02 41.24172 -8.67568 238 ft 14 kts 349°
2026-04-14 13:02 41.24258 -8.67631 236 ft 17 kts 308°
2026-04-14 13:02 41.24366 -8.67724 227 ft 22 kts 348°
2026-04-14 13:02 41.24517 -8.67764 219 ft 23 kts 349°
2026-04-14 13:03 41.24690 -8.67810 210 ft 25 kts 348°
2026-04-14 13:03 41.24839 -8.67882 206 ft 23 kts 332°
2026-04-14 13:03 41.25000 -8.67945 195 ft 22 kts 350°
2026-04-14 13:03 41.25138 -8.67981 189 ft 21 kts 348°
2026-04-14 13:04 41.25296 -8.68023 181 ft 25 kts 348°
2026-04-14 13:04 41.25429 -8.68058 177 ft 17 kts 349°
2026-04-14 13:04 41.25543 -8.68088 173 ft 16 kts 348°
2026-04-14 13:04 41.25608 -8.68105 171 ft 6 kts 349°
2026-04-14 13:05 41.25655 -8.68124 170 ft 8 kts 330°
2026-04-14 13:05 41.25679 -8.68185 170 ft 7 kts 270°
2026-04-14 13:05 41.25674 -8.68217 170 ft 0 kts 259°
2026-04-14 13:06 41.25673 -8.68228 170 ft 3 kts 259°
2026-04-14 13:06 41.25669 -8.68255 170 ft 3 kts 259°
2026-04-14 13:06 41.25664 -8.68291 171 ft 4 kts 259°
2026-04-14 13:07 41.25652 -8.68330 171 ft 5 kts 235°
2026-04-14 13:07 41.25619 -8.68338 172 ft 5 kts 169°
2026-04-14 13:07 41.25618 -8.68337 172 ft 0 kts 169°
2026-04-14 13:08 41.25614 -8.68336 172 ft 4 kts 169°
2026-04-14 13:08 41.25400 -8.68282 177 ft 68 kts 169°
2026-04-14 13:08 41.24713 -8.68101 214 ft 131 kts 169°
2026-04-14 13:09 41.23680 -8.67839 481 ft 158 kts 173°
2026-04-14 13:09 41.22611 -8.67633 1273 ft 154 kts 173°
2026-04-14 13:09 41.21534 -8.67360 1762 ft 167 kts 169°
2026-04-14 13:09 41.20336 -8.67010 2114 ft 186 kts 168°
2026-04-14 13:10 41.19004 -8.66594 2429 ft 205 kts 168°
2026-04-14 13:10 41.17564 -8.66144 2743 ft 221 kts 168°
2026-04-14 13:10 41.15982 -8.65653 2957 ft 247 kts 168°
2026-04-14 13:10 41.14257 -8.65121 3470 ft 259 kts 168°
2026-04-14 13:11 41.12489 -8.64624 4272 ft 261 kts 171°
2026-04-14 13:11 41.10693 -8.64211 5050 ft 264 kts 173°
2026-04-14 13:11 41.08870 -8.64343 5727 ft 266 kts 202°
2026-04-14 13:11 41.07408 -8.65799 6446 ft 268 kts 236°
2026-04-14 13:12 41.06649 -8.68060 7110 ft 271 kts 255°
2026-04-14 13:12 41.06280 -8.70489 7804 ft 274 kts 262°
2026-04-14 13:12 41.06260 -8.73010 8456 ft 277 kts 284°
2026-04-14 13:12 41.07096 -8.75310 9125 ft 281 kts 308°
2026-04-14 13:13 41.08566 -8.77022 9783 ft 285 kts 331°
2026-04-14 13:13 41.10463 -8.77840 10434 ft 290 kts 346°
2026-04-14 13:13 41.12507 -8.78411 10632 ft 312 kts 347°
2026-04-14 13:13 41.14703 -8.78994 10802 ft 331 kts 347°
2026-04-14 13:14 41.16991 -8.79588 11267 ft 337 kts 347°
2026-04-14 13:14 41.19303 -8.80186 11861 ft 340 kts 347°
2026-04-14 13:14 41.21635 -8.80795 12478 ft 342 kts 347°
2026-04-14 13:14 41.23979 -8.81411 13096 ft 345 kts 347°
2026-04-14 13:15 41.26339 -8.82034 13708 ft 347 kts 347°
2026-04-14 13:15 41.28713 -8.82663 14284 ft 349 kts 347°
2026-04-14 13:15 41.31107 -8.83299 14822 ft 352 kts 347°
2026-04-14 13:15 41.33511 -8.83938 15363 ft 354 kts 347°
2026-04-14 13:16 41.35935 -8.84584 15893 ft 356 kts 347°
2026-04-14 13:16 41.38382 -8.85174 16420 ft 360 kts 352°
2026-04-14 13:16 41.40897 -8.85201 16939 ft 365 kts
2026-04-14 13:16 41.43400 -8.84535 17454 ft 370 kts 15°
2026-04-14 13:17 41.45858 -8.83451 17950 ft 373 kts 15°
2026-04-14 13:17 41.48332 -8.82351 18444 ft 376 kts 15°
2026-04-14 13:17 41.50823 -8.81246 18881 ft 379 kts 15°
2026-04-14 13:17 41.53331 -8.80139 19308 ft 381 kts 15°
2026-04-14 13:18 41.55857 -8.79029 19746 ft 383 kts 15°
2026-04-14 13:18 41.58395 -8.77912 20180 ft 385 kts 15°
2026-04-14 13:18 41.60085 -8.77167 20462 ft 387 kts 15°
2026-04-14 13:18 41.63484 -8.75664 21026 ft 390 kts 15°
2026-04-14 13:19 41.65225 -8.74892 21311 ft 391 kts 15°
2026-04-14 13:19 41.67816 -8.73744 21726 ft 394 kts 15°
2026-04-14 13:19 41.70426 -8.72587 22118 ft 396 kts 15°
2026-04-14 13:19 41.73903 -8.71042 22658 ft 399 kts 15°
2026-04-14 13:20 41.75680 -8.70250 22951 ft 399 kts 15°
2026-04-14 13:20 41.78320 -8.69075 23355 ft 401 kts 15°
2026-04-14 13:20 41.80976 -8.67893 23755 ft 403 kts 15°
2026-04-14 13:20 41.83642 -8.66706 24103 ft 405 kts 14°
2026-04-14 13:21 41.86326 -8.65513 24427 ft 407 kts 14°
2026-04-14 13:21 41.89022 -8.64315 24775 ft 409 kts 14°
2026-04-14 13:21 41.91735 -8.63105 25108 ft 411 kts 14°
2026-04-14 13:21 41.94418 -8.61909 25428 ft 413 kts 14°
2026-04-14 13:22 41.97155 -8.60685 25741 ft 416 kts 14°
2026-04-14 13:22 41.99906 -8.59452 26065 ft 418 kts 14°
2026-04-14 13:22 42.02670 -8.58208 26376 ft 420 kts 14°
2026-04-14 13:22 42.05445 -8.56964 26680 ft 421 kts 13°
2026-04-14 13:23 42.08288 -8.56103 26971 ft 418 kts
2026-04-14 13:23 42.11185 -8.55645 27255 ft 420 kts
2026-04-14 13:23 42.14092 -8.55192 27535 ft 422 kts
2026-04-14 13:23 42.17018 -8.54734 27825 ft 424 kts
2026-04-14 13:24 42.19954 -8.54270 28128 ft 426 kts
2026-04-14 13:24 42.25868 -8.53329 28706 ft 430 kts
2026-04-14 13:24 42.28843 -8.52850 28998 ft 431 kts
2026-04-14 13:25 42.31827 -8.52366 29283 ft 433 kts
2026-04-14 13:25 42.34832 -8.51882 29553 ft 436 kts
2026-04-14 13:26 42.43923 -8.50432 30358 ft 441 kts
2026-04-14 13:26 42.46977 -8.49904 30570 ft 445 kts
2026-04-14 13:26 42.49988 -8.48825 30772 ft 451 kts 16°
2026-04-14 13:26 42.52863 -8.47040 30957 ft 459 kts 26°
2026-04-14 13:27 42.55508 -8.44574 31138 ft 466 kts 36°
2026-04-14 13:27 42.57959 -8.41684 31317 ft 468 kts 37°
2026-04-14 13:27 42.60407 -8.38777 31563 ft 467 kts 37°
2026-04-14 13:27 42.62853 -8.35873 31837 ft 466 kts 37°
2026-04-14 13:28 42.65292 -8.32979 32136 ft 465 kts 37°
2026-04-14 13:28 42.67725 -8.30092 32453 ft 463 kts 37°
2026-04-14 13:28 42.70145 -8.27221 32736 ft 461 kts 37°
2026-04-14 13:28 42.72562 -8.24352 33008 ft 461 kts 37°
2026-04-14 13:29 42.74977 -8.21486 33252 ft 461 kts 37°
2026-04-14 13:29 42.77386 -8.18623 33513 ft 460 kts 37°
2026-04-14 13:29 42.79795 -8.15749 33744 ft 460 kts 37°
2026-04-14 13:29 42.82197 -8.12875 33998 ft 459 kts 37°
2026-04-14 13:30 42.84598 -8.10000 34239 ft 459 kts 37°
2026-04-14 13:30 42.86994 -8.07128 34447 ft 459 kts 37°
2026-04-14 13:30 42.89388 -8.04253 34666 ft 458 kts 37°
2026-04-14 13:30 42.91778 -8.01382 34868 ft 458 kts 37°
2026-04-14 13:31 42.94168 -7.98509 35069 ft 458 kts 37°
2026-04-14 13:31 42.96559 -7.95632 35214 ft 458 kts 37°
2026-04-14 13:31 43.01296 -7.89916 35234 ft 453 kts 37°
2026-04-14 13:32 43.06015 -7.84222 35234 ft 452 kts 37°
2026-04-14 13:32 43.10735 -7.78530 35225 ft 452 kts 37°
2026-04-14 13:33 43.15444 -7.72825 35229 ft 452 kts 37°
2026-04-14 13:33 43.20154 -7.67098 35240 ft 453 kts 37°
2026-04-14 13:34 43.27197 -7.58520 35239 ft 454 kts 37°
2026-04-14 13:35 43.31919 -7.52771 35244 ft 454 kts 37°
2026-04-14 13:35 43.36634 -7.47009 35228 ft 454 kts 37°
2026-04-14 13:36 43.41338 -7.41232 35245 ft 454 kts 37°
2026-04-14 13:36 43.46038 -7.35436 35231 ft 454 kts 37°
2026-04-14 13:37 43.50740 -7.29630 35224 ft 454 kts 37°
2026-04-14 13:37 43.55443 -7.23827 35226 ft 454 kts 37°
2026-04-14 13:38 43.60145 -7.18019 35234 ft 453 kts 37°
2026-04-14 13:38 43.64834 -7.12199 35230 ft 453 kts 37°
2026-04-14 13:39 43.69523 -7.06375 35222 ft 453 kts 37°
2026-04-14 13:39 43.74211 -7.00543 35218 ft 453 kts 37°
2026-04-14 13:40 43.78893 -6.94697 35215 ft 453 kts 37°
2026-04-14 13:40 43.83573 -6.88838 35222 ft 454 kts 37°
2026-04-14 13:41 43.88250 -6.82966 35223 ft 454 kts 37°
2026-04-14 13:41 43.92925 -6.77095 35225 ft 453 kts 37°
2026-04-14 13:42 43.97586 -6.71225 35225 ft 452 kts 37°
2026-04-14 13:42 44.02240 -6.65353 35222 ft 452 kts 37°
2026-04-14 13:43 44.06888 -6.59481 35221 ft 452 kts 37°
2026-04-14 13:43 44.11539 -6.53591 35215 ft 452 kts 37°
2026-04-14 13:44 44.16183 -6.47689 35209 ft 452 kts 37°
2026-04-14 13:44 44.20820 -6.41776 35213 ft 451 kts 37°
2026-04-14 13:45 44.25444 -6.35860 35224 ft 450 kts 37°
2026-04-14 13:45 44.30057 -6.29959 35214 ft 450 kts 37°
2026-04-14 13:46 44.34683 -6.24040 35410 ft 453 kts 37°
2026-04-14 13:46 44.37007 -6.21066 35606 ft 453 kts 37°
2026-04-14 13:46 44.39325 -6.18091 35813 ft 452 kts 37°
2026-04-14 13:46 44.41637 -6.15112 36023 ft 452 kts 37°
2026-04-14 13:47 44.43948 -6.12126 36233 ft 452 kts 37°
2026-04-14 13:47 44.46253 -6.09145 36436 ft 451 kts 37°
2026-04-14 13:47 44.48557 -6.06167 36654 ft 450 kts 36°
2026-04-14 13:47 44.50849 -6.03203 36907 ft 448 kts 36°
2026-04-14 13:48 44.53134 -6.00247 37107 ft 447 kts 36°
2026-04-14 13:48 44.55416 -5.97293 37274 ft 446 kts 36°
2026-04-14 13:48 44.57695 -5.94340 37444 ft 446 kts 36°
2026-04-14 13:48 44.59970 -5.91389 37602 ft 445 kts 36°
2026-04-14 13:49 44.62242 -5.88438 37751 ft 445 kts 36°
2026-04-14 13:49 44.64511 -5.85485 37895 ft 445 kts 36°
2026-04-14 13:49 44.66776 -5.82522 38050 ft 444 kts 36°
2026-04-14 13:49 44.69012 -5.79524 38171 ft 445 kts 37°
2026-04-14 13:50 44.71235 -5.76482 38171 ft 446 kts 38°
2026-04-14 13:50 44.75652 -5.70356 38185 ft 446 kts 37°
2026-04-14 13:51 44.80022 -5.64302 38171 ft 442 kts 37°
2026-04-14 13:51 44.84416 -5.58246 38171 ft 441 kts 37°
2026-04-14 13:52 44.88811 -5.52201 38178 ft 442 kts 37°
2026-04-14 13:52 44.93205 -5.46114 38179 ft 443 kts 37°
2026-04-14 13:53 44.97614 -5.40006 38182 ft 445 kts 37°
2026-04-14 13:53 45.02028 -5.33876 38197 ft 445 kts 37°
2026-04-14 13:54 45.06425 -5.27751 38192 ft 443 kts 37°
2026-04-14 13:54 45.10817 -5.21637 38192 ft 443 kts 37°
2026-04-14 13:55 45.15207 -5.15514 38183 ft 443 kts 37°
2026-04-14 13:55 45.19587 -5.09371 38180 ft 443 kts 37°
2026-04-14 13:56 45.23966 -5.03209 38180 ft 443 kts 37°
2026-04-14 13:56 45.28340 -4.97044 38202 ft 443 kts 37°
2026-04-14 13:57 45.32704 -4.90882 38188 ft 442 kts 37°
2026-04-14 13:57 45.37060 -4.84712 38181 ft 442 kts 37°
2026-04-14 13:58 45.41423 -4.78547 38179 ft 442 kts 37°
2026-04-14 13:58 45.45779 -4.72376 38173 ft 441 kts 37°
2026-04-14 13:59 45.50120 -4.66194 38194 ft 441 kts 37°
2026-04-14 13:59 45.54451 -4.59995 38180 ft 441 kts 37°
2026-04-14 14:00 45.58746 -4.53847 38176 ft 440 kts 37°
2026-04-14 14:00 45.63064 -4.47656 38172 ft 440 kts 37°
2026-04-14 14:01 45.67374 -4.41457 38171 ft 439 kts 37°
2026-04-14 14:01 45.71684 -4.35258 38167 ft 439 kts 37°
2026-04-14 14:02 45.75991 -4.29042 38166 ft 440 kts 37°
2026-04-14 14:02 45.80303 -4.22794 38167 ft 441 kts 37°
2026-04-14 14:03 45.84613 -4.16538 38157 ft 440 kts 37°
2026-04-14 14:03 45.88909 -4.10289 38156 ft 440 kts 37°
2026-04-14 14:04 45.93209 -4.04022 38162 ft 441 kts 37°
2026-04-14 14:04 45.97520 -3.97739 38156 ft 442 kts 37°
2026-04-14 14:05 46.01833 -3.91421 38159 ft 442 kts 38°
2026-04-14 14:05 46.06126 -3.85101 38149 ft 441 kts 38°
2026-04-14 14:06 46.10418 -3.78790 38160 ft 440 kts 38°
2026-04-14 14:06 46.13976 -3.73543 38164 ft 441 kts 38°
2026-04-14 14:07 46.18262 -3.67218 38151 ft 441 kts 38°
2026-04-14 14:07 46.22543 -3.60873 38149 ft 441 kts 38°
2026-04-14 14:08 46.26822 -3.54520 38169 ft 441 kts 38°
2026-04-14 14:08 46.31093 -3.48166 38164 ft 440 kts 38°
2026-04-14 14:09 46.35352 -3.41823 38155 ft 439 kts 38°
2026-04-14 14:09 46.39605 -3.35465 38150 ft 440 kts 38°
2026-04-14 14:10 46.43856 -3.29085 38148 ft 440 kts 38°
2026-04-14 14:10 46.48102 -3.22701 38150 ft 440 kts 38°
2026-04-14 14:11 46.52320 -3.16363 38168 ft 439 kts 38°
2026-04-14 14:11 46.56529 -3.09844 38163 ft 444 kts 44°
2026-04-14 14:12 46.59825 -3.02166 38160 ft 453 kts 52°
2026-04-14 14:12 46.62992 -2.94242 38157 ft 453 kts 51°
2026-04-14 14:13 46.66171 -2.86324 38156 ft 453 kts 51°
2026-04-14 14:13 46.69347 -2.78398 38173 ft 453 kts 51°
2026-04-14 14:14 46.72503 -2.70477 38174 ft 451 kts 51°
2026-04-14 14:14 46.75644 -2.62564 38170 ft 450 kts 51°
2026-04-14 14:15 46.78779 -2.54661 38168 ft 450 kts 51°
2026-04-14 14:15 46.81905 -2.46751 38168 ft 450 kts 52°
2026-04-14 14:16 46.85016 -2.38831 38194 ft 449 kts 51°
2026-04-14 14:16 46.88162 -2.30984 38189 ft 446 kts 50°
2026-04-14 14:17 46.93075 -2.19500 38187 ft 443 kts 49°
2026-04-14 14:17 46.96339 -2.11846 38187 ft 443 kts 50°
2026-04-14 14:18 46.99609 -2.04204 38208 ft 439 kts 45°
2026-04-14 14:18 47.01546 -2.00822 38200 ft 428 kts 36°
2026-04-14 14:18 47.03755 -1.97996 38192 ft 417 kts 28°
2026-04-14 14:19 47.08398 -1.92905 38183 ft 417 kts 28°
2026-04-14 14:19 47.12996 -1.87822 38185 ft 416 kts 28°
2026-04-14 14:20 47.17618 -1.82692 38193 ft 416 kts 28°
2026-04-14 14:20 47.22254 -1.77577 38186 ft 417 kts 28°
2026-04-14 14:21 47.26899 -1.72464 38184 ft 417 kts 28°
2026-04-14 14:21 47.31537 -1.67318 38183 ft 418 kts 28°
2026-04-14 14:22 47.35904 -1.61546 38200 ft 432 kts 43°
2026-04-14 14:22 47.39610 -1.54547 38194 ft 432 kts 43°
2026-04-14 14:23 47.43316 -1.47558 38186 ft 432 kts 43°
2026-04-14 14:23 47.47024 -1.40564 38179 ft 432 kts 43°
2026-04-14 14:24 47.50726 -1.33546 38175 ft 433 kts 43°
2026-04-14 14:24 47.54417 -1.26516 38183 ft 433 kts 43°
2026-04-14 14:25 47.58102 -1.19475 38194 ft 432 kts 43°
2026-04-14 14:25 47.61780 -1.12435 38194 ft 432 kts 43°
2026-04-14 14:26 47.65452 -1.05379 38188 ft 432 kts 44°
2026-04-14 14:26 47.69116 -0.98322 38194 ft 432 kts 44°
2026-04-14 14:27 47.72776 -0.91245 38190 ft 432 kts 44°
2026-04-14 14:27 47.76440 -0.84176 38190 ft 432 kts 44°
2026-04-14 14:28 47.80089 -0.77112 38214 ft 429 kts 44°
2026-04-14 14:28 47.83715 -0.70057 38198 ft 429 kts 44°
2026-04-14 14:29 47.87341 -0.62986 38191 ft 429 kts 44°
2026-04-14 14:29 47.90973 -0.55919 38191 ft 430 kts 44°
2026-04-14 14:30 47.94599 -0.48826 38192 ft 430 kts 44°
2026-04-14 14:30 47.98214 -0.41714 38191 ft 430 kts 44°
2026-04-14 14:31 48.01830 -0.34588 38201 ft 430 kts 44°
2026-04-14 14:31 48.05415 -0.27499 38200 ft 431 kts 44°
2026-04-14 14:32 48.08423 -0.19563 38193 ft 445 kts 56°
2026-04-14 14:32 48.11051 -0.11174 38192 ft 446 kts 56°
2026-04-14 14:33 48.13644 -0.02876 38188 ft 445 kts 56°
2026-04-14 14:33 48.16272 0.05516 38215 ft 444 kts 56°
2026-04-14 14:34 48.20185 0.18074 38213 ft 443 kts 56°
2026-04-14 14:35 48.22778 0.26456 38212 ft 443 kts 56°
2026-04-14 14:35 48.25370 0.34844 38202 ft 443 kts 56°
2026-04-14 14:36 48.27958 0.43251 38234 ft 444 kts 56°
2026-04-14 14:36 48.30519 0.51630 38186 ft 440 kts 56°
2026-04-14 14:37 48.33075 0.59976 38194 ft 440 kts 56°
2026-04-14 14:37 48.35627 0.68338 38196 ft 440 kts 56°
2026-04-14 14:38 48.38168 0.76719 38198 ft 440 kts 56°
2026-04-14 14:38 48.40704 0.85110 38201 ft 441 kts 57°
2026-04-14 14:39 48.43237 0.93517 38216 ft 440 kts 56°
2026-04-14 14:39 48.45763 1.01914 38214 ft 440 kts 56°
2026-04-14 14:40 48.48283 1.10313 38208 ft 440 kts 56°
2026-04-14 14:40 48.50796 1.18734 38206 ft 440 kts 57°
2026-04-14 14:41 48.53298 1.27162 38206 ft 440 kts 57°
2026-04-14 14:41 48.55788 1.35574 38189 ft 436 kts 56°
2026-04-14 14:42 48.58254 1.43929 38193 ft 435 kts 56°
2026-04-14 14:42 48.60725 1.52282 38197 ft 436 kts 56°
2026-04-14 14:43 48.63185 1.60663 38204 ft 436 kts 56°
2026-04-14 14:43 48.65573 1.69121 38209 ft 440 kts 59°
2026-04-14 14:44 48.67694 1.77839 38195 ft 442 kts 61°
2026-04-14 14:44 48.69717 1.86620 38187 ft 442 kts 60°
2026-04-14 14:45 48.71788 1.95378 38194 ft 442 kts 60°
2026-04-14 14:45 48.73898 2.04116 38208 ft 442 kts 60°
2026-04-14 14:46 48.75960 2.12919 38205 ft 446 kts 63°
2026-04-14 14:46 48.77667 2.22001 38238 ft 450 kts 65°
2026-04-14 14:47 48.79201 2.31163 38223 ft 451 kts 66°
2026-04-14 14:47 48.80773 2.40363 38219 ft 451 kts 65°
2026-04-14 14:48 48.82406 2.49543 38219 ft 450 kts 65°
2026-04-14 14:48 48.84063 2.58707 38216 ft 450 kts 65°
2026-04-14 14:49 48.85689 2.67886 38203 ft 449 kts 66°
2026-04-14 14:49 48.87291 2.77046 38205 ft 449 kts 66°
2026-04-14 14:50 48.88893 2.86208 38209 ft 449 kts 66°
2026-04-14 14:50 48.90487 2.95400 38213 ft 450 kts 66°
2026-04-14 14:51 48.92074 3.04597 38217 ft 450 kts 66°
2026-04-14 14:51 48.93647 3.13797 38215 ft 448 kts 68°
2026-04-14 14:52 48.95212 3.22966 38220 ft 448 kts 68°
2026-04-14 14:52 48.96776 3.32133 38223 ft 448 kts 68°
2026-04-14 14:53 48.98327 3.41316 38227 ft 448 kts 68°
2026-04-14 14:53 48.99864 3.50509 38226 ft 448 kts 68°
2026-04-14 14:54 49.01409 3.59706 38234 ft 448 kts 68°
2026-04-14 14:54 49.02687 3.67354 38233 ft 448 kts 69°
2026-04-14 14:55 49.04213 3.76573 38223 ft 449 kts 69°
2026-04-14 14:55 49.05730 3.85802 38220 ft 449 kts 69°
2026-04-14 14:56 49.08002 3.99680 38221 ft 450 kts 69°
2026-04-14 14:56 49.09507 4.08934 38218 ft 450 kts 69°
2026-04-14 14:57 49.11007 4.18206 38217 ft 450 kts 69°
2026-04-14 14:57 49.12498 4.27482 38218 ft 450 kts 69°
2026-04-14 14:58 49.14063 4.36719 38220 ft 445 kts 63°
2026-04-14 14:58 49.16393 4.45397 38235 ft 442 kts 61°
2026-04-14 14:59 49.18757 4.54076 38223 ft 443 kts 62°
2026-04-14 14:59 49.21118 4.62788 38221 ft 444 kts 62°
2026-04-14 15:00 49.23471 4.71535 38222 ft 445 kts 62°
2026-04-14 15:00 49.25817 4.80316 38216 ft 446 kts 62°
2026-04-14 15:01 49.28161 4.89116 38241 ft 447 kts 62°
2026-04-14 15:01 49.30506 4.97938 38230 ft 448 kts 63°
2026-04-14 15:02 49.32854 5.06785 38222 ft 448 kts 63°
2026-04-14 15:02 49.35202 5.15644 38219 ft 449 kts 63°
2026-04-14 15:03 49.37543 5.24518 38218 ft 449 kts 63°
2026-04-14 15:03 49.39866 5.33415 38218 ft 449 kts 63°
2026-04-14 15:04 49.42191 5.42321 38201 ft 449 kts 64°
2026-04-14 15:04 49.44513 5.51227 38202 ft 449 kts 64°
2026-04-14 15:05 49.46813 5.60096 38203 ft 450 kts 64°
2026-04-14 15:05 49.49115 5.69042 38209 ft 450 kts 64°
2026-04-14 15:06 49.51417 5.78009 38210 ft 451 kts 64°
2026-04-14 15:06 49.53650 5.87033 38231 ft 452 kts 66°
2026-04-14 15:07 49.55843 5.96089 38223 ft 452 kts 66°
2026-04-14 15:07 49.57128 6.00474 38220 ft 446 kts 54°
2026-04-14 15:07 49.59029 6.04167 38227 ft 437 kts 39°
2026-04-14 15:08 49.61444 6.06935 38220 ft 431 kts 26°
2026-04-14 15:08 49.64054 6.09195 38212 ft 431 kts 26°
2026-04-14 15:08 49.69297 6.13707 38206 ft 432 kts 26°
2026-04-14 15:09 49.74550 6.18247 38206 ft 433 kts 26°
2026-04-14 15:09 49.77177 6.20532 37984 ft 434 kts 26°
2026-04-14 15:09 49.79809 6.22825 37387 ft 433 kts 26°
2026-04-14 15:10 49.82418 6.25104 36863 ft 429 kts 26°
2026-04-14 15:10 49.85010 6.27373 36330 ft 426 kts 26°
2026-04-14 15:10 49.87580 6.29625 35805 ft 423 kts 25°
2026-04-14 15:10 49.90131 6.31865 35320 ft 419 kts 25°
2026-04-14 15:11 49.92660 6.34085 34845 ft 415 kts 25°
2026-04-14 15:11 49.95156 6.36277 34400 ft 410 kts 25°
2026-04-14 15:11 49.97629 6.38451 33948 ft 406 kts 25°
2026-04-14 15:11 50.00074 6.40603 33467 ft 402 kts 25°
2026-04-14 15:12 50.02489 6.42731 33024 ft 396 kts 25°
2026-04-14 15:12 50.04871 6.44830 32582 ft 391 kts 25°
2026-04-14 15:12 50.07226 6.46904 32159 ft 386 kts 25°
2026-04-14 15:12 50.09544 6.48952 31733 ft 381 kts 25°
2026-04-14 15:13 50.11836 6.50982 31316 ft 376 kts 26°
2026-04-14 15:13 50.13953 6.53394 30913 ft 383 kts 41°
2026-04-14 15:13 50.15542 6.56775 30446 ft 395 kts 59°
2026-04-14 15:13 50.16350 6.60922 29760 ft 408 kts 79°
2026-04-14 15:14 50.16302 6.65381 29062 ft 414 kts 90°
2026-04-14 15:14 50.16085 6.69865 28374 ft 414 kts 90°
2026-04-14 15:14 50.15867 6.74347 27610 ft 416 kts 90°
2026-04-14 15:14 50.15651 6.78861 26836 ft 419 kts 90°
2026-04-14 15:15 50.15436 6.83400 26078 ft 420 kts 91°
2026-04-14 15:15 50.15222 6.87949 25336 ft 421 kts 91°
2026-04-14 15:15 50.15006 6.92512 24623 ft 422 kts 92°
2026-04-14 15:15 50.14786 6.97079 23915 ft 422 kts 92°
2026-04-14 15:16 50.14563 7.01637 23123 ft 422 kts 92°
2026-04-14 15:16 50.14339 7.06192 22302 ft 421 kts 92°
2026-04-14 15:16 50.14117 7.10732 21493 ft 420 kts 92°
2026-04-14 15:16 50.13896 7.15258 20737 ft 418 kts 92°
2026-04-14 15:17 50.13676 7.19768 19990 ft 416 kts 93°
2026-04-14 15:17 50.13454 7.24193 19269 ft 414 kts 93°
2026-04-14 15:17 50.13228 7.28653 18555 ft 412 kts 93°
2026-04-14 15:17 50.13001 7.33095 17755 ft 410 kts 93°
2026-04-14 15:18 50.12773 7.37491 16979 ft 402 kts 93°
2026-04-14 15:18 50.12548 7.41760 16207 ft 389 kts 93°
2026-04-14 15:18 50.12328 7.45894 15455 ft 377 kts 93°
2026-04-14 15:18 50.12115 7.49911 14719 ft 366 kts 93°
2026-04-14 15:19 50.11908 7.53835 14001 ft 363 kts 93°
2026-04-14 15:19 50.11700 7.57738 13421 ft 357 kts 93°
2026-04-14 15:19 50.11500 7.61463 12888 ft 333 kts 94°
2026-04-14 15:19 50.11312 7.64949 12373 ft 314 kts 94°
2026-04-14 15:20 50.11083 7.68313 11873 ft 313 kts 100°
2026-04-14 15:20 50.10517 7.71583 11374 ft 312 kts 107°
2026-04-14 15:20 50.09895 7.74773 11184 ft 303 kts 107°
2026-04-14 15:20 50.09282 7.77904 11190 ft 302 kts 107°
2026-04-14 15:21 50.08671 7.81040 11195 ft 304 kts 108°
2026-04-14 15:21 50.08253 7.84273 11195 ft 306 kts 94°
2026-04-14 15:21 50.08365 7.87581 11195 ft 307 kts 79°
2026-04-14 15:21 50.08993 7.90742 11194 ft 306 kts 68°
2026-04-14 15:22 50.09774 7.93839 11190 ft 308 kts 69°
2026-04-14 15:22 50.10541 7.96946 11193 ft 307 kts 69°
2026-04-14 15:22 50.11299 8.00050 11192 ft 307 kts 69°
2026-04-14 15:22 50.12055 8.03157 11193 ft 307 kts 69°
2026-04-14 15:23 50.12811 8.06274 11194 ft 307 kts 69°
2026-04-14 15:23 50.13563 8.09382 11193 ft 307 kts 69°
2026-04-14 15:23 50.14315 8.12496 11196 ft 306 kts 69°
2026-04-14 15:23 50.15055 8.15561 11192 ft 300 kts 69°
2026-04-14 15:24 50.15787 8.18594 11192 ft 299 kts 69°
2026-04-14 15:24 50.16517 8.21612 10879 ft 296 kts 69°
2026-04-14 15:24 50.17242 8.24610 10489 ft 295 kts 70°
2026-04-14 15:24 50.17963 8.27598 10084 ft 294 kts 70°
2026-04-14 15:25 50.18684 8.30588 9630 ft 294 kts 69°
2026-04-14 15:25 50.19316 8.33599 9252 ft 290 kts 81°
2026-04-14 15:25 50.19218 8.36692 8873 ft 286 kts 107°
2026-04-14 15:25 50.18283 8.39377 8468 ft 283 kts 133°
2026-04-14 15:26 50.16703 8.41140 8200 ft 279 kts 158°
2026-04-14 15:26 50.14859 8.42154 8188 ft 283 kts 166°
2026-04-14 15:26 50.12945 8.42908 8193 ft 284 kts 165°
2026-04-14 15:26 50.11065 8.43745 8189 ft 285 kts 163°
2026-04-14 15:27 50.09156 8.44597 8192 ft 286 kts 164°
2026-04-14 15:27 50.07236 8.45444 8193 ft 287 kts 164°
2026-04-14 15:27 50.05325 8.46289 8191 ft 285 kts 164°
2026-04-14 15:27 50.03411 8.47135 8193 ft 286 kts 164°
2026-04-14 15:28 50.01495 8.47978 8193 ft 286 kts 164°
2026-04-14 15:28 49.99579 8.48819 8193 ft 286 kts 164°
2026-04-14 15:28 49.97660 8.49659 8193 ft 286 kts 163°
2026-04-14 15:28 49.95739 8.50496 8194 ft 287 kts 164°
2026-04-14 15:29 49.93823 8.51333 8193 ft 285 kts 164°
2026-04-14 15:29 49.91918 8.52173 8186 ft 285 kts 163°
2026-04-14 15:29 49.90010 8.53013 8187 ft 284 kts 164°
2026-04-14 15:29 49.88109 8.53850 8187 ft 285 kts 163°
2026-04-14 15:30 49.86194 8.54676 8188 ft 285 kts 163°
2026-04-14 15:30 49.84277 8.55475 8188 ft 285 kts 164°
2026-04-14 15:30 49.82368 8.56273 8188 ft 284 kts 164°
2026-04-14 15:30 49.80462 8.57074 8188 ft 284 kts 163°
2026-04-14 15:31 49.78552 8.57871 8190 ft 284 kts 164°
2026-04-14 15:31 49.76632 8.58559 8183 ft 284 kts 175°
2026-04-14 15:31 49.74694 8.58139 8185 ft 284 kts 202°
2026-04-14 15:31 49.73072 8.56479 7840 ft 282 kts 228°
2026-04-14 15:32 49.72120 8.53919 7423 ft 279 kts 256°
2026-04-14 15:32 49.71926 8.50919 7001 ft 278 kts 272°
2026-04-14 15:32 49.71959 8.47935 6583 ft 278 kts 274°
2026-04-14 15:32 49.72001 8.44949 6167 ft 278 kts 274°
2026-04-14 15:33 49.72117 8.41991 5791 ft 273 kts 285°
2026-04-14 15:33 49.72821 8.39375 5426 ft 266 kts 302°
2026-04-14 15:33 49.73746 8.36913 5051 ft 264 kts 303°
2026-04-14 15:33 49.74701 8.34463 4676 ft 262 kts 303°
2026-04-14 15:34 49.75633 8.32101 4316 ft 260 kts 303°
2026-04-14 15:34 49.76590 8.29703 4025 ft 256 kts 303°
2026-04-14 15:34 49.77539 8.27352 4008 ft 260 kts 304°
2026-04-14 15:34 49.78498 8.24975 4011 ft 260 kts 304°
2026-04-14 15:35 49.79442 8.22635 4011 ft 260 kts 304°
2026-04-14 15:35 49.80409 8.20228 4010 ft 260 kts 303°
2026-04-14 15:35 49.81350 8.17883 4011 ft 260 kts 303°
2026-04-14 15:35 49.82307 8.15503 4015 ft 260 kts 303°
2026-04-14 15:36 49.83267 8.13126 4015 ft 261 kts 304°
2026-04-14 15:36 49.84229 8.10743 4014 ft 259 kts 304°
2026-04-14 15:36 49.85148 8.08455 4008 ft 239 kts 303°
2026-04-14 15:36 49.85979 8.06383 4018 ft 214 kts 303°
2026-04-14 15:37 49.86755 8.04447 4021 ft 210 kts 304°
2026-04-14 15:37 49.87736 8.02828 4009 ft 206 kts 333°
2026-04-14 15:37 49.89100 8.02397 4020 ft 203 kts
2026-04-14 15:37 49.90359 8.03292 4032 ft 203 kts 42°
2026-04-14 15:38 49.91078 8.05174 4028 ft 206 kts 67°
2026-04-14 15:38 49.91577 8.07253 4016 ft 206 kts 68°
2026-04-14 15:38 49.92078 8.09331 4017 ft 204 kts 68°
2026-04-14 15:38 49.92554 8.11289 4001 ft 183 kts 67°
2026-04-14 15:39 49.92993 8.13086 4007 ft 177 kts 67°
2026-04-14 15:39 49.93427 8.14865 4010 ft 176 kts 67°
2026-04-14 15:39 49.93858 8.16629 4013 ft 174 kts 67°
2026-04-14 15:39 49.94286 8.18385 4011 ft 174 kts 67°
2026-04-14 15:40 49.94716 8.20149 4014 ft 174 kts 67°
2026-04-14 15:40 49.95143 8.21907 4015 ft 174 kts 67°
2026-04-14 15:40 49.95569 8.23655 4014 ft 173 kts 66°
2026-04-14 15:40 49.95993 8.25403 4000 ft 173 kts 67°
2026-04-14 15:41 49.96418 8.27152 3864 ft 173 kts 68°
2026-04-14 15:41 49.96842 8.28902 3650 ft 172 kts 67°
2026-04-14 15:41 49.97264 8.30643 3444 ft 172 kts 67°
2026-04-14 15:41 49.97685 8.32380 3206 ft 172 kts 67°
2026-04-14 15:42 49.98105 8.34118 2974 ft 172 kts 67°
2026-04-14 15:42 49.98526 8.35859 2737 ft 172 kts 67°
2026-04-14 15:42 49.98803 8.37006 2575 ft 171 kts 68°
2026-04-14 15:42 49.99352 8.39280 2298 ft 168 kts 67°
2026-04-14 15:43 49.99787 8.41077 2032 ft 176 kts 67°
2026-04-14 15:43 50.00187 8.42744 1804 ft 154 kts 67°
2026-04-14 15:43 50.00432 8.43763 1664 ft 145 kts 67°
2026-04-14 15:43 50.00888 8.45659 1410 ft 139 kts 66°
2026-04-14 15:44 50.01215 8.47052 1216 ft 137 kts 67°
2026-04-14 15:44 50.01444 8.47991 1095 ft 137 kts 67°
2026-04-14 15:44 50.01784 8.49386 913 ft 138 kts 67°
2026-04-14 15:44 50.02120 8.50758 763 ft 136 kts 68°
2026-04-14 15:45 50.02456 8.52161 569 ft 136 kts 68°
2026-04-14 15:45 50.02785 8.53541 377 ft 136 kts 67°
2026-04-14 15:45 50.03086 8.54789 338 ft 106 kts 70°
2026-04-14 15:45 50.03292 8.55656 351 ft 70 kts 70°
2026-04-14 15:46 50.03438 8.56276 357 ft 53 kts 69°
2026-04-14 15:46 50.03545 8.56715 353 ft 31 kts 69°
2026-04-14 15:46 50.03646 8.56996 356 ft 29 kts 50°
2026-04-14 15:46 50.03783 8.57190 358 ft 25 kts 39°
2026-04-14 15:47 50.03909 8.57349 368 ft 19 kts 39°
2026-04-14 15:47 50.03980 8.57508 366 ft 18 kts 69°
2026-04-14 15:47 50.04024 8.57698 370 ft 19 kts 70°
2026-04-14 15:47 50.04073 8.57900 368 ft 21 kts 69°
2026-04-14 15:48 50.04120 8.58087 369 ft 12 kts 61°
2026-04-14 15:48 50.04194 8.58174 370 ft 14 kts 26°
2026-04-14 15:48 50.04261 8.58210 369 ft 11 kts 359°
2026-04-14 15:48 50.04284 8.58201 369 ft 0 kts 342°
2026-04-14 15:49 50.04285 8.58201 366 ft 1 kts 342°
2026-04-14 15:50 50.04299 8.58193 374 ft 3 kts 342°
2026-04-14 15:50 50.04332 8.58176 367 ft 6 kts 340°
2026-04-14 15:50 50.04381 8.58149 369 ft 9 kts 340°
2026-04-14 15:50 50.04445 8.58113 371 ft 12 kts 340°
2026-04-14 15:51 50.04526 8.58060 365 ft 13 kts 320°
2026-04-14 15:51 50.04519 8.57919 365 ft 15 kts 250°
2026-04-14 15:51 50.04481 8.57759 366 ft 17 kts 249°
2026-04-14 15:51 50.04439 8.57585 367 ft 19 kts 250°
2026-04-14 15:52 50.04391 8.57380 364 ft 19 kts 250°
2026-04-14 15:52 50.04344 8.57184 364 ft 20 kts 250°
2026-04-14 15:52 50.04293 8.56970 362 ft 17 kts 249°
2026-04-14 15:52 50.04282 8.56853 360 ft 11 kts 297°
2026-04-14 15:53 50.04354 8.56829 360 ft 12 kts
2026-04-14 15:53 50.04446 8.56853 359 ft 15 kts 10°
2026-04-14 15:53 50.04555 8.56889 359 ft 17 kts 13°
2026-04-14 15:53 50.04674 8.56949 359 ft 13 kts 23°
2026-04-14 15:54 50.04749 8.56898 361 ft 3 kts 291°
2026-04-14 15:54 50.04752 8.56887 359 ft 1 kts 292°
2026-04-14 15:54 50.04753 8.56882 356 ft 0 kts 293°